Location: Bidart
(43.4376°N, 1.5913°W)
Time: 05:55:13
(UTC+00:00)

Helios 1B - Pass Details

Date: 19 May 2025
Orbit: 608 x 610 km, 98.2° (Epoch: 18 June)

Event Time Altitude Azimuth Distance (km) Brightness Sun altitude
Rises 22:33:50 0° 13° (NNE) 2,882 8.8 -23.4°
Reaches altitude 10° 22:36:01 10° 13° (NNE) 1,973 7.9 -23.5°
Maximum altitude 22:40:19 89° 280° (W) 616 4.4 -23.8°
Enters shadow 22:40:21 88° 224° (SW) 616 4.4 -23.8°
